Location: Saluda
(35.2377°N, 82.3468°W)
Time: 15:43:51
(UTC+00:00)

SR - Pass Details

Date: 10 October 2022
Orbit: 577 x 875 km, 66.7° (Epoch: 28 November)

Event Time Altitude Azimuth Distance (km) Brightness Sun altitude
Rises 00:45:49 0° 221° (SW) 3,410 ? -22.0°
Reaches altitude 10° 00:48:21 10° 227° (SW) 2,498 ? -22.5°
Maximum altitude 00:53:59 49° 301° (WNW) 1,123 ? -23.6°
Drops below altitude 10° 00:59:40 10° 16° (NNE) 2,515 ? -24.8°
Sets 01:02:14 0° 22° (NNE) 3,435 ? -25.3°
